Starlink 31779

operational
NORAD ID: 59744 Int'l Des: 2024-090 Owner: SPXS Country: US Constellation: starlink
LEOCIRCULAR

About Starlink 31779

Description loading...

Live Position

Loading 3D Globe...

Upcoming Passes

Altitude History

Altitude vs Time

uPlot chart will show altitude changes over time

Two-Line Element Set

1 59744U 24090Q 25305.40876863 -.00000187 00000-0 27324-5 0 9991
2 59744 43.0052 187.7564 0001962 285.0201 75.0434 15.27576445 83829
Epoch: Nov 1, 2025 • Age: 18 hours

Current Status

Altitude 486.9 km
Velocity 7.62 km/s
Sub-Earth Point -18.57°S, 76.87°W
Launch Date May 13, 2024
Age 1.4 years
Type internet

Technical Details

Classification Payload
Mass 730.00 kg
Dry Mass 700.00 kg
Total Mass 730.00 kg
Length 0.30 m
Diameter 4.10 m
Span 29.00 m
Shape Box + pan
Manufacturer SPXS
Bus Type Starlink V2M
Phase Status In Orbit
Owner/State SPXS/US

Large Constellations

Loading constellations...